Regional Weather Roundup
Issued by NWS

Home | Current Version | Previous Version | Graphics & Text | Print | Product List | Glossary On
Versions: 1 2 3 4 5 6 7 8 9 10 11 12 13 14 15 16 17 18 19 20 21 22 23 24 25 26 27 28 29 30 31 32 33 34 35 36 37 38 39 40 41 42 43 44 45 46 47 48 49 50
781
ASUS45 KSLC 211910
RWRUT

UTAH REGIONAL WEATHER ROUNDUP
NATIONAL WEATHER SERVICE SALT LAKE CITY UT
1200 PM MST TUE FEB 21 2017

UTZ001>011-023>025-212000-

NORTHERN UTAH

CITY           SKY/WX    TMP DP  RH WIND       PRES   REMARKS
BRIGHAM CITY     N/A     55  41  58 S18G24    29.99F
HILL AFB       PTSUNNY   57  37  46 S28G35    30.00F
LOGAN          CLOUDY    59  39  47 S26G40    29.96F
OGDEN          MOSUNNY   59  38  45 S26G36    29.99F
SALT LAKE CITY MOSUNNY   60  36  40 S33G43    30.00F
TOOELE VALLEY  SUNNY     59  39  47 S38G44    30.01F
WENDOVER       SUNNY     61  30  31 SW28G33   29.97F
HEBER CITY     CLOUDY    52  34  50 SW15G22   30.10F
WEST JORDAN    MOSUNNY   59  45  60 S38G47    30.05S

$$

UTZ011>015-024>027-212000-

CENTRAL/NORTHEAST UTAH

CITY           SKY/WX    TMP DP  RH WIND       PRES   REMARKS
PROVO AIRPORT  PTSUNNY   54  37  54 S25G40    30.11F
MOAB/CANYONLAN CLOUDY    59  41  51 S15       30.20F
DELTA          MOSUNNY   55  37  50 S37G45    30.14F
PRICE          CLOUDY    44  38  79 CALM      30.21F
RICHFIELD      SUNNY     61  30  31 S29G36    30.15F
ROOSEVELT      SUNNY     55  37  50 SW14G20   30.17F
VERNAL         CLOUDY    53  37  54 SW15      30.15F

$$

UTZ013>016-019>022-027-212000-

SOUTHERN UTAH

CITY           SKY/WX    TMP DP  RH WIND       PRES   REMARKS
BRYCE CANYON   PTSUNNY   42  33  70 S14G20    30.33F
CEDAR CITY     PTSUNNY   52  35  52 SW32G39   30.22F
MILFORD        PTSUNNY   57  41  55 SW22      30.20F
ST GEORGE      CLOUDY    60  48  64 NW5       30.27F
HANKSVILLE     PTSUNNY   61  34  36 NW5       30.22F
KANAB          PTSUNNY   57  43  58 S12       30.36F
BLANDING       PTSUNNY   51  37  57 SW5       30.43F

$$

REGIONAL REPORTS     COLORADO/ARIZONA

CITY           SKY/WX    TMP DP  RH WIND       PRES   REMARKS
CRAIG, CO      CLOUDY    51  31  46 SW16G29   30.16F
GRAND JUNCTION CLOUDY    59  37  44 S10       30.21F
RIFLE, CO      CLOUDY    55  36  48 W14       30.21F
MONTROSE, CO   SUNNY     57  32  38 VRB3      30.27F
CORTEZ, CO     MOSUNNY   55  38  52 S8        30.35F
COLORADO CITY    N/A     57  43  58 CALM      30.34F
PAGE, AZ       SUNNY     56  39  53 N3        30.28F
GRAND CANYON   MOSUNNY   52  40  63 W10G20    30.40F
KINGMAN, AZ    PTSUNNY   62  38  40 SW9       30.32F
FLAGSTAFF, AZ  SUNNY     55  35  47 W13G18    30.41F

$$

REGIONAL REPORTS    NEVADA/IDAHO/WYOMING

CITY           SKY/WX    TMP DP  RH WIND       PRES   REMARKS
LAS VEGAS, NV  CLOUDY    68  32  26 S12G23    30.22S
ELY, NY        MOSUNNY   48  31  51 S28G40    30.09F
ELKO, NV       LGT RAIN  45  33  63 W23G33    29.97S
POCATELLO, ID  LGT RAIN  45  37  73 CALM      29.96S
BURLEY, ID     PTSUNNY   52  34  50 W21G29    29.93F
FORT BRIDGER,    N/A     47  30  51 SW21G28   30.08S
EVANSTON, WY   CLOUDY    42  30  62 SW23      30.05S
ROCK SPRINGS,  SUNNY     50  30  46 SW17      30.04F
KEMMERER, WY     N/A     41  32  70 SW18G25   30.03F

$$




USA.gov is the U.S. government's official web portal to all federal, state and local government web resources and services.